Location: Borz?cin
(51.1714°N, 19.6030°E)
Time: 21:19:59
(UTC+00:00)

SL-16 R/B - Pass Details

Date: 19 May 2025
Orbit: 841 x 844 km, 71.0° (Epoch: 16 June)

Event Time Altitude Azimuth Distance (km) Brightness Sun altitude
Rises 19:12:59 0° 329° (NNW) 3,414 7.2 -5.9°
Reaches altitude 10° 19:16:29 10° 350° (N) 2,477 5.5 -6.3°
Maximum altitude 19:19:56 16° 28° (NNE) 2,071 4.5 -6.7°
Drops below altitude 10° 19:23:22 10° 66° (ENE) 2,473 4.4 -7.1°
Sets 19:26:51 0° 87° (E) 3,405 5.0 -7.5°
